Showing default

LAPAN A3, 41603

Orbit data source: Space-Track

LAPAN A3, 41603 is a payload satellite owned by LAPAN (ID) in SSO that was launched on Wed, 22 Jun 2016 UTC via a PSLV-XL launch vehicle from the Sirharikota (SRI). Payload-class satellites include a variety of spacecraft equipped with specific instruments for various scientific and technological missions. These include communications satellites like Starlink; space stations such as the ISS; scientific satellites like the Hubble; Earth observation satellites from companies like Planet Labs, Umbra, and HawkEye 360; GPS; miniature CubeSats for education and research; and military/defense satellites.

Loading next visibility...
Identifier
41603, 2016-040E
Orbit
SSO
Country
Flag of UnknownUnknown / INDO
Related business
Manufacturer
LAPAN
Mission
Operational Civil Imaging
Bus & Motor
TUBSAT, Unknown motor
Mass
120 kg wet, 120 kg dry
Launch date (UTC)
2016-06-22 (9 years ago)
Launch vehicle
PSLV-XL
Launch site
Sirharikota (SRI)
Object type
Payload
Rocket body
Debris
Shape & HBR
Box, 0.3 m
Radar Cross Section
0.225 m², Medium (>0.1 m² and < 1m²)

Expand to show TLE details & history
Last TLE update: 7 hours ago

TLE from 7 hours ago
0 LAPAN A3
1 41603U 16040E   25261.01202831  .00003712  00000-0  12805-3 0  9990
2 41603  97.1421 261.7432 0008752 270.7135  89.3104 15.30543679513144
Epoch: 2025-09-18T00:17Z
TLE epoch observation values (Epoch: 2025-09-18T00:17:19.245Z)
Latitude
-0.00003°
Longitude
-99.76672°
Altitude
477.234 km
Speed
7.627 km/s
True Right ascension
17h 26m 58s
True Declination
0° 00' 00"
Sunlit
Object was in daylight at epoch
Visualization orbit readout
Latitude
Unknown
Longitude
Unknown
Altitude
Unknown
Speed
Unknown
Apparent Right ascension
Unknown
Apparent Declination
Unknown
Sunlit
N/A
Visualization observer readout
Local Sidereal Time
23:56:10
Azimuth
Unknown
Elevation
Unknown
Doppler factor
Unknown
Orbital elements
Apogee altitude
477.124 km
Perigee altitude
465.135 km
Semi-major axis
6,849.267 km
Eccentricity
0.00088
Inclination
97.1421°
RAAN
261.7432°
Arg. of periapsis
270.7135°
True anomaly
89.41068°
Mean anomaly
89.3104°
Eccentric anomaly
89.36054°
Mean motion
3.82893 °/min
Orbital period
94.02 mins
BSTAR
0.00012805
Loading maneuver chart data...
Computing Atmospheric mass density...
Loading historical data...
Loading historical data...
Loading historical data...
Loading historical data...
Loading historical data...
Loading historical data...
Loading historical data...

Documentation

Showing up to 5 results
|